CZ-6A DEB, 54591

Orbit data source: Space-Track

CZ-6A DEB, 54591 is space debris in SSO originally from a launch on Fri, 11 Nov 2022 UTC launched from the Taiyaun Space Center, China (TSC). Debris objects in space refer to the collection of defunct objects orbiting the Earth. Examples of debris include non-operational satellites, rocket bodies, and fragments generated from explosions, collisions, or faulty payload assembly.

Loading next visibility...
Identifier
54591, 2022-151MR
Orbit
SSO
Country
Flag of CNCN / PRC
Related business
Manufacturer
SAST
Mission
Spacecraft
Bus & Motor
Unknown
Mass
Unknown
Launch date (UTC)
2022-11-11 (4 years ago)
Launch vehicle
Unknown
Launch site
Taiyaun Space Center, China (TSC)
Object type
Payload
Rocket body
Debris
Shape & HBR
Unknown shape, 0.1 m
Radar Cross Section
Medium (>0.1 m² and <1 m²)

Expand to show TLE details & history
Last TLE update: 2 days ago

TLE from 2 days ago
0 CZ-6A DEB
1 54591U 22151MR  26171.21330198  .00018003  00000-0  18419-2 0  9996
2 54591  98.7177 269.3882 0083034 240.0274 119.2679 14.88036635117019
Epoch: 2026-06-20T05:07Z
TLE epoch observation values (Epoch: 2026-06-20T05:07:09.291Z)
Latitude
0.00002°
Longitude
-75.83167°
Altitude
635.792 km
Speed
7.525 km/s
True Right ascension
17h 57m 33s
True Declination
0° 00' 00"
Sunlit
Object was in full shadow at epoch
Visualization orbit readout
Latitude
Unknown
Longitude
Unknown
Altitude
Unknown
Speed
Unknown
Apparent Right ascension
Unknown
Apparent Declination
Unknown
Sunlit
N/A
Visualization observer readout
Local Sidereal Time
23:18:52
Azimuth
Unknown
Elevation
Unknown
Doppler factor
Unknown
Orbital elements
Apogee altitude
659.091 km
Perigee altitude
543.187 km
Semi-major axis
6,979.276 km
Eccentricity
0.0083
Inclination
98.7177°
RAAN
269.3882°
Arg. of periapsis
240.0274°
True anomaly
120.09371°
Mean anomaly
119.2679°
Eccentric anomaly
119.68123°
Mean motion
3.72244 °/min
Orbital period
96.71 mins
BSTAR
0.0018419
Loading maneuver chart data...
Computing Atmospheric mass density...
Loading historical data...
Loading historical data...
Loading historical data...
Loading historical data...
Loading historical data...
Loading historical data...
Loading historical data...

Documentation

Showing up to 5 results
|